Location: Burera
(21.3780°N, 81.9534°E)
Time: 12:14:32
(UTC+00:00)

Cosmos 1782 - Pass Details

Date: 13 August 2020
Orbit: 538 x 550 km, 82.5° (Epoch: 22 September)

Event Time Altitude Azimuth Distance (km) Brightness Sun altitude
Rises 13:40:02 0° 3° (N) 2,715 6.6 -8.9°
Reaches altitude 10° 13:42:16 10° 10° (N) 1,821 5.6 -9.4°
Maximum altitude 13:46:08 46° 84° (E) 743 3.1 -10.2°
Drops below altitude 10° 13:49:58 10° 158° (SSE) 1,817 5.1 -11.1°
Enters shadow 13:51:18 - 162° (SSE) 2,346 5.7 -11.3°
